N3DXC Weather Reports


Display with metric or nautical units.
time (UTC)temp
F
wind
direction
speed
MPH
gust
MPH
rain 1hr
in
rain 24hr
in
rain mn
in
humidity
%
barometer
mb
20191207064921 27 261 4.0 5.0 0.00 0.00 0.00 88 1026.2
20191207064421 27 260 5.0 5.0 0.00 0.00 0.00 87 1026.1
20191207063920 27 282 0.0 0.0 0.00 0.00 0.00 87 1026.1
20191207063420 27 282 0.0 0.0 0.00 0.00 0.00 86 1026.1
20191207062920 27 282 0.0 0.0 0.00 0.00 0.00 86 1026.1
20191207062420 27 282 0.0 4.0 0.00 0.00 0.00 86 1026.0
20191207061920 27 262 2.0 4.0 0.00 0.00 0.00 86 1026.0
20191207061419 27 288 3.0 4.0 0.00 0.00 0.00 86 1026.0
20191207060919 27 288 0.0 0.0 0.00 0.00 0.00 86 1026.0
20191207060418 27 288 0.0 0.0 0.00 0.00 0.00 85 1026.0
20191207055918 27 288 0.0 1.0 0.00 0.00 0.00 85 1026.0
20191207055418 27 306 0.0 0.0 0.00 0.00 0.00 85 1025.9
20191207054918 27 306 0.0 4.0 0.00 0.00 0.00 85 1025.9
20191207054417 27 253 0.0 0.0 0.00 0.00 0.00 84 1025.9
20191207053917 27 253 0.0 4.0 0.00 0.00 0.00 84 1025.9
20191207053417 27 299 0.0 5.0 0.00 0.00 0.00 84 1025.9
20191207052916 28 271 2.0 4.0 0.00 0.00 0.00 84 1025.8
20191207052416 28 268 3.0 5.0 0.00 0.00 0.00 84 1025.8
20191207051916 28 258 2.0 5.0 0.00 0.00 0.00 83 1025.8
20191207051416 28 253 0.0 5.0 0.00 0.00 0.00 83 1025.8
20191207050915 28 279 3.0 4.0 0.00 0.00 0.00 82 1025.9
20191207050415 28 274 4.0 5.0 0.00 0.00 0.00 82 1025.8
20191207045915 28 278 3.0 5.0 0.00 0.00 0.00 81 1025.8
20191207045414 28 255 0.0 0.0 0.00 0.00 0.00 80 1025.8
20191207044915 28 255 0.0 0.0 0.00 0.00 0.00 79 1025.9
20191207044414 28 255 0.0 0.0 0.00 0.00 0.00 79 1025.9
20191207043913 28 255 0.0 0.0 0.00 0.00 0.00 79 1025.9
20191207043413 29 255 0.0 0.0 0.00 0.00 0.00 79 1025.9
20191207042913 29 255 0.0 0.0 0.00 0.00 0.00 78 1025.9
20191207042413 29 255 0.0 5.0 0.00 0.00 0.00 77 1025.9
20191207041912 29 316 4.0 5.0 0.00 0.00 0.00 77 1026.0
20191207041412 29 292 4.0 5.0 0.00 0.00 0.00 77 1026.0
20191207040912 29 309 0.0 3.0 0.00 0.00 0.00 77 1025.9
20191207040411 29 284 2.0 5.0 0.00 0.00 0.00 77 1025.9
20191207035911 29 286 5.0 5.0 0.00 0.00 0.00 78 1025.9
20191207035411 29 336 0.0 0.0 0.00 0.00 0.00 78 1025.8
20191207034911 29 336 0.0 0.0 0.00 0.00 0.00 78 1025.8
20191207034410 29 336 0.0 2.0 0.00 0.00 0.00 78 1025.6
20191207033910 29 292 0.0 4.0 0.00 0.00 0.00 78 1025.6
20191207033410 29 309 3.0 6.0 0.00 0.00 0.00 78 1025.4
20191207032909 30 345 3.0 6.0 0.00 0.00 0.00 78 1025.4
20191207032409 30 350 2.0 7.0 0.00 0.00 0.00 77 1025.3
20191207031909 30 0 3.0 9.0 0.00 0.00 0.00 77 1025.3
20191207031409 30 330 4.0 7.0 0.00 0.00 0.00 77 1025.3
20191207030908 30 331 6.0 8.0 0.00 0.00 0.00 77 1025.2
20191207030408 30 341 4.0 8.0 0.00 0.00 0.00 77 1025.2
20191207025908 30 327 6.0 8.0 0.00 0.00 0.00 77 1025.2
20191207025407 31 322 3.0 11.0 0.00 0.00 0.00 77 1025.0
20191207024907 31 323 8.0 14.0 0.00 0.00 0.00 78 1025.1
20191207024407 31 329 4.0 11.0 0.00 0.00 0.00 78 1025.0
20191207023907 31 344 2.0 12.0 0.00 0.00 0.00 79 1025.0
20191207023406 31 295 5.0 10.0 0.00 0.00 0.00 80 1024.9
20191207022906 31 331 9.0 12.0 0.00 0.00 0.00 81 1024.8
20191207022406 31 347 8.0 13.0 0.00 0.00 0.00 81 1024.8
20191207021905 31 322 3.0 7.0 0.00 0.00 0.00 83 1024.8
20191207021405 31 316 2.0 5.0 0.00 0.00 0.00 83 1024.6
20191207020905 32 309 2.0 7.0 0.00 0.00 0.00 82 1024.6
20191207020405 32 319 5.0 11.0 0.00 0.00 0.00 82 1024.6
20191207015904 32 310 3.0 10.0 0.00 0.00 0.00 81 1024.5
20191207015404 32 307 5.0 9.0 0.00 0.00 0.00 81 1024.5
20191207014904 32 284 7.0 11.0 0.00 0.00 0.00 81 1024.5
20191207014403 32 320 7.0 12.0 0.00 0.00 0.00 80 1024.4
20191207013903 33 310 9.0 15.0 0.00 0.00 0.00 80 1024.4
20191207013403 33 306 15.0 15.0 0.00 0.00 0.00 80 1024.3
20191207012903 33 288 7.0 15.0 0.00 0.00 0.00 81 1024.3
20191207012402 33 286 5.0 11.0 0.00 0.00 0.00 80 1024.2
20191207011902 33 306 9.0 14.0 0.00 0.00 0.00 80 1024.2
20191207011402 33 282 7.0 13.0 0.00 0.00 0.00 79 1024.2
20191207010901 33 274 6.0 13.0 0.00 0.00 0.00 78 1024.1
20191207010401 33 306 10.0 16.0 0.00 0.00 0.00 78 1024.1
20191207005901 33 300 7.0 16.0 0.00 0.00 0.00 78 1024.0
20191207005400 34 307 3.0 12.0 0.00 0.00 0.00 77 1024.0
20191207004900 34 282 4.0 11.0 0.00 0.00 0.00 76 1023.9
20191207004400 34 284 6.0 12.0 0.00 0.00 0.00 76 1023.9
20191207003900 34 281 5.0 13.0 0.00 0.00 0.00 75 1023.6
20191207003359 34 306 8.0 10.0 0.00 0.00 0.00 76 1023.6
20191207002859 34 307 7.0 13.0 0.00 0.00 0.00 76 1023.5
20191207002359 34 319 8.0 12.0 0.00 0.00 0.00 77 1023.4
20191207001858 34 299 6.0 10.0 0.00 0.00 0.00 75 1023.3
20191207001358 34 298 4.0 10.0 0.00 0.00 0.00 77 1023.3
20191207000858 34 303 5.0 11.0 0.00 0.00 0.00 77 1023.2
20191207000358 34 337 7.0 14.0 0.00 0.00 0.00 78 1023.2
20191206235857 34 307 7.0 12.0 0.00 0.00 0.00 78 1023.1
20191206235357 34 293 6.0 16.0 0.00 0.00 0.00 78 1023.0
20191206234857 33 299 4.0 17.0 0.00 0.00 0.00 82 1022.9
20191206234356 34 303 13.0 20.0 0.00 0.00 0.00 85 1022.8
20191206233856 34 295 10.0 16.0 0.00 0.00 0.00 86 1022.6
20191206233356 34 274 5.0 13.0 0.00 0.00 0.00 86 1022.5
20191206232856 34 286 8.0 17.0 0.00 0.00 0.00 87 1022.5
20191206232355 34 272 5.0 13.0 0.00 0.00 0.00 87 1022.4
20191206231855 34 270 5.0 13.0 0.00 0.00 0.00 88 1022.2
20191206231355 34 309 7.0 11.0 0.00 0.00 0.00 89 1022.0
20191206230854 34 291 12.0 13.0 0.00 0.00 0.00 89 1022.0
20191206230354 34 306 10.0 13.0 0.00 0.00 0.00 89 1021.9
20191206225854 35 312 5.0 13.0 0.00 0.00 0.00 89 1021.7
20191206225354 35 278 4.0 13.0 0.00 0.00 0.00 89 1021.6
20191206224853 35 282 8.0 13.0 0.00 0.00 0.00 89 1021.5
20191206224353 35 313 8.0 12.0 0.00 0.00 0.00 89 1021.4
20191206223853 35 302 8.0 12.0 0.00 0.00 0.00 89 1021.3
20191206223409 31 230 12.0 19.0 0.00 0.00 0.00 100 1001.2
20191206223352 35 288 12.0 15.0 0.00 0.00 0.00 89 1021.2
20191206222852 35 296 3.0 14.0 0.00 0.00 0.00 89 1021.1
20191206222352 35 285 5.0 16.0 0.00 0.00 0.00 90 1021.0
20191206221852 35 286 7.0 16.0 0.00 0.00 0.00 90 1021.0
20191206221351 35 286 9.0 20.0 0.00 0.00 0.00 91 1020.8
20191206220851 35 286 5.0 12.0 0.00 0.00 0.00 91 1020.8
20191206220351 35 306 9.0 16.0 0.00 0.00 0.00 91 1020.7
20191206215850 35 295 7.0 19.0 0.00 0.00 0.00 92 1020.5
20191206215350 35 337 13.0 14.0 0.00 0.00 0.00 92 1020.4
20191206214850 36 312 8.0 25.0 0.00 0.00 0.00 92 1020.2
20191206214349 36 285 23.0 23.0 0.00 0.00 0.00 92 1020.0
20191206213849 37 262 15.0 17.0 0.00 0.00 0.00 93 1019.9
20191206213349 37 285 9.0 16.0 0.00 0.00 0.00 93 1019.7
20191206212849 37 272 11.0 18.0 0.00 0.00 0.00 93 1019.6
20191206212348 37 279 10.0 16.0 0.00 0.00 0.00 93 1019.5
20191206211848 37 292 7.0 18.0 0.00 0.00 0.00 93 1019.4
20191206211348 38 293 9.0 17.0 0.00 0.00 0.00 93 1019.2
20191206210847 38 285 13.0 17.0 0.00 0.00 0.00 92 1019.0
20191206210347 38 270 6.0 26.0 0.00 0.00 0.00 91 1018.9
20191206205847 39 275 11.0 23.0 0.00 0.00 0.00 89 1018.7
20191206205347 39 281 6.0 13.0 0.00 0.00 0.00 88 1018.7
20191206204846 40 285 8.0 16.0 0.00 0.00 0.00 86 1018.4
20191206204346 40 300 8.0 16.0 0.00 0.00 0.00 83 1018.3
20191206203846 40 261 14.0 18.0 0.00 0.00 0.00 82 1018.1
20191206203345 40 285 12.0 23.0 0.00 0.00 0.00 81 1018.0
20191206202845 40 285 16.0 20.0 0.00 0.00 0.00 79 1017.9
20191206202345 40 281 6.0 17.0 0.00 0.00 0.00 78 1017.8
20191206201845 40 248 7.0 12.0 0.00 0.00 0.00 78 1017.7
20191206201344 40 274 7.0 15.0 0.00 0.00 0.00 77 1017.6
20191206200844 40 271 14.0 16.0 0.00 0.00 0.00 77 1017.5
20191206200344 41 265 10.0 19.0 0.00 0.00 0.00 77 1017.4
20191206195843 41 261 10.0 14.0 0.00 0.00 0.00 76 1017.3
20191206195343 41 278 12.0 15.0 0.00 0.00 0.00 76 1017.2
20191206194843 41 258 13.0 14.0 0.00 0.00 0.00 75 1017.2
20191206194343 41 255 14.0 17.0 0.00 0.00 0.00 75 1017.1
20191206193842 41 286 11.0 14.0 0.00 0.00 0.00 75 1017.0
20191206193342 41 277 11.0 16.0 0.00 0.00 0.00 74 1016.8
20191206192842 41 267 9.0 15.0 0.00 0.00 0.00 74 1016.7
20191206192341 41 264 8.0 18.0 0.00 0.00 0.00 73 1016.6
20191206191841 41 262 12.0 17.0 0.00 0.00 0.00 72 1016.6
20191206191341 41 267 9.0 15.0 0.00 0.00 0.00 72 1016.5
20191206190841 41 272 8.0 16.0 0.00 0.00 0.00 71 1016.5
20191206190340 41 243 10.0 13.0 0.00 0.00 0.00 71 1016.3
20191206185840 41 254 7.0 15.0 0.00 0.00 0.00 71 1016.2
20191206185340 41 262 12.0 16.0 0.00 0.00 0.00 70 1016.2
20191206184839 41 274 10.0 17.0 0.00 0.00 0.00 70 1016.2
20191206184339 42 268 16.0 18.0 0.00 0.00 0.00 69 1016.2
20191206183839 41 275 11.0 16.0 0.00 0.00 0.00 69 1016.1
20191206183338 41 253 15.0 18.0 0.00 0.00 0.00 69 1016.1
20191206182838 41 248 13.0 14.0 0.00 0.00 0.00 69 1016.1
20191206182338 41 254 9.0 17.0 0.00 0.00 0.00 69 1016.0
20191206181838 41 261 12.0 19.0 0.00 0.00 0.00 70 1015.9
20191206181337 41 255 17.0 19.0 0.00 0.00 0.00 69 1015.9
20191206180837 41 233 10.0 18.0 0.00 0.00 0.00 70 1015.8
20191206180337 40 244 14.0 17.0 0.00 0.00 0.00 69 1015.8
20191206175836 41 230 13.0 18.0 0.00 0.00 0.00 69 1015.9
20191206175336 41 257 14.0 22.0 0.00 0.00 0.00 69 1016.0
20191206174836 40 254 15.0 18.0 0.00 0.00 0.00 71 1016.0
20191206174336 40 248 12.0 17.0 0.00 0.00 0.00 70 1015.9
20191206173837 40 241 12.0 19.0 0.00 0.00 0.00 70 1016.0
20191206173335 41 253 15.0 19.0 0.00 0.00 0.00 69 1016.1
20191206172835 41 243 12.0 20.0 0.00 0.00 0.00 69 1016.1
20191206172334 40 250 12.0 18.0 0.00 0.00 0.00 70 1016.2
20191206171834 40 251 10.0 17.0 0.00 0.00 0.00 70 1016.3
20191206171334 40 264 8.0 13.0 0.00 0.00 0.00 71 1016.4
20191206170834 40 248 13.0 15.0 0.00 0.00 0.00 71 1016.4
20191206170333 40 251 9.0 12.0 0.00 0.00 0.00 72 1016.5
20191206165833 40 246 12.0 15.0 0.00 0.00 0.00 72 1016.6
20191206165333 40 270 14.0 14.0 0.00 0.00 0.00 72 1016.5
20191206164832 40 255 9.0 14.0 0.00 0.00 0.00 73 1016.4
20191206164332 39 253 8.0 13.0 0.00 0.00 0.00 73 1016.6
20191206163832 39 254 10.0 14.0 0.00 0.00 0.00 73 1016.5
20191206163331 40 277 8.0 17.0 0.00 0.00 0.00 71 1016.6
20191206162831 40 239 15.0 17.0 0.00 0.00 0.00 70 1016.7
20191206162331 40 246 17.0 19.0 0.00 0.00 0.00 69 1016.7
20191206161831 40 215 12.0 16.0 0.00 0.00 0.00 67 1016.7
20191206161330 40 209 11.0 18.0 0.00 0.00 0.00 66 1016.6
20191206160830 40 239 11.0 16.0 0.00 0.00 0.00 67 1016.6
20191206160330 40 258 9.0 17.0 0.00 0.00 0.00 66 1016.8
20191206155829 41 244 13.0 18.0 0.00 0.00 0.00 65 1016.7
20191206155329 41 236 13.0 19.0 0.00 0.00 0.00 65 1016.6
20191206154829 41 236 9.0 16.0 0.00 0.00 0.00 64 1016.6
20191206154329 41 237 11.0 16.0 0.00 0.00 0.00 65 1016.6
20191206153828 41 279 8.0 21.0 0.00 0.00 0.00 64 1016.6
20191206153328 41 250 15.0 19.0 0.00 0.00 0.00 63 1016.6
20191206152828 40 227 12.0 16.0 0.00 0.00 0.00 65 1016.6
20191206152327 40 271 8.0 18.0 0.00 0.00 0.00 64 1016.7
20191206151827 40 237 9.0 17.0 0.00 0.00 0.00 65 1016.7
20191206151327 40 232 8.0 15.0 0.00 0.00 0.00 66 1016.8
20191206150827 40 250 11.0 14.0 0.00 0.00 0.00 66 1016.8
20191206150327 40 230 9.0 15.0 0.00 0.00 0.00 65 1017.0
20191206145826 40 230 12.0 19.0 0.00 0.00 0.00 65 1017.1
20191206145326 40 251 19.0 19.0 0.00 0.00 0.00 64 1017.1
20191206144825 40 232 17.0 19.0 0.00 0.00 0.00 65 1017.0
20191206144358 40 253 15.0 24.0 0.00 0.00 0.00 64 1016.8
20191206144325 40 253 15.0 24.0 0.00 0.00 0.00 64 1016.8
20191206143825 40 247 12.0 16.0 0.00 0.00 0.00 65 1017.0
20191206143325 40 248 13.0 20.0 0.00 0.00 0.00 64 1016.8
20191206142824 39 244 12.0 19.0 0.00 0.00 0.00 66 1016.8
20191206142324 39 246 9.0 19.0 0.00 0.00 0.00 67 1017.0
20191206141824 39 251 10.0 14.0 0.00 0.00 0.00 68 1016.8
20191206141323 38 243 10.0 14.0 0.00 0.00 0.00 68 1016.8
20191206140823 38 223 6.0 15.0 0.00 0.00 0.00 68 1016.8
20191206140323 37 233 8.0 11.0 0.00 0.00 0.00 70 1016.7
20191206135822 37 236 9.0 12.0 0.00 0.00 0.00 70 1016.7
20191206135322 37 217 7.0 11.0 0.00 0.00 0.00 71 1016.8
20191206134822 36 230 9.0 10.0 0.00 0.00 0.00 73 1016.7
20191206134322 36 230 6.0 8.0 0.00 0.00 0.00 74 1016.8
20191206133821 35 226 5.0 7.0 0.00 0.00 0.00 74 1016.8
20191206133321 35 215 3.0 7.0 0.00 0.00 0.00 74 1016.7
20191206132821 35 210 6.0 8.0 0.00 0.00 0.00 74 1016.7
20191206132320 35 234 5.0 10.0 0.00 0.00 0.00 75 1016.8
20191206131820 34 240 7.0 10.0 0.00 0.00 0.00 75 1017.0
20191206131320 34 216 6.0 10.0 0.00 0.00 0.00 76 1017.1
20191206130820 34 233 6.0 9.0 0.00 0.00 0.00 76 1017.2
20191206130319 34 219 7.0 9.0 0.00 0.00 0.00 76 1017.2
20191206125819 34 237 6.0 8.0 0.00 0.00 0.00 77 1017.3
20191206125319 33 232 7.0 8.0 0.00 0.00 0.00 77 1017.4
20191206124818 33 229 6.0 8.0 0.00 0.00 0.00 78 1017.4
20191206124318 33 232 5.0 8.0 0.00 0.00 0.00 78 1017.5
20191206123818 33 225 5.0 7.0 0.00 0.00 0.00 78 1017.5
20191206123318 33 232 5.0 6.0 0.00 0.00 0.00 77 1017.6
20191206122817 33 236 5.0 6.0 0.00 0.00 0.00 77 1017.6
20191206122317 33 239 5.0 7.0 0.00 0.00 0.00 77 1017.6
20191206121817 33 226 5.0 6.0 0.00 0.00 0.00 78 1017.7
20191206121317 33 223 5.0 5.0 0.00 0.00 0.00 78 1017.7
20191206120816 33 229 3.0 5.0 0.00 0.00 0.00 78 1017.8
20191206120316 34 225 4.0 5.0 0.00 0.00 0.00 78 1017.8
20191206115816 34 225 3.0 6.0 0.00 0.00 0.00 78 1017.8
20191206115315 34 229 6.0 7.0 0.00 0.00 0.00 78 1017.9
20191206114815 33 215 5.0 7.0 0.00 0.00 0.00 78 1018.0
20191206114315 33 215 5.0 8.0 0.00 0.00 0.00 78 1018.1
20191206113814 33 225 5.0 7.0 0.00 0.00 0.00 78 1018.1
20191206113314 33 234 4.0 7.0 0.00 0.00 0.00 78 1018.1
20191206112814 33 237 5.0 9.0 0.00 0.00 0.00 79 1018.1
20191206112313 33 239 6.0 8.0 0.00 0.00 0.00 79 1018.1
20191206111813 33 234 6.0 8.0 0.00 0.00 0.00 78 1018.2
20191206111313 33 237 6.0 8.0 0.00 0.00 0.00 79 1018.1
20191206110813 32 253 5.0 6.0 0.00 0.00 0.00 80 1018.2
20191206110312 32 248 5.0 5.0 0.00 0.00 0.00 80 1018.1
20191206105812 32 237 4.0 5.0 0.00 0.00 0.00 80 1018.1
20191206105312 32 226 4.0 7.0 0.00 0.00 0.00 79 1018.1
20191206104812 32 236 5.0 6.0 0.00 0.00 0.00 79 1018.0
20191206104311 32 241 5.0 7.0 0.00 0.00 0.00 79 1018.2
20191206103811 32 220 5.0 10.0 0.00 0.00 0.00 79 1018.2
20191206103311 32 232 4.0 9.0 0.00 0.00 0.00 79 1018.1
20191206102810 32 203 6.0 7.0 0.00 0.00 0.00 79 1018.1
20191206102310 32 205 6.0 8.0 0.00 0.00 0.00 79 1018.1
20191206101811 32 239 5.0 7.0 0.00 0.00 0.00 79 1018.2
20191206101310 32 219 8.0 9.0 0.00 0.00 0.00 79 1018.2
20191206100809 32 222 7.0 8.0 0.00 0.00 0.00 80 1018.2
20191206100309 31 206 7.0 10.0 0.00 0.00 0.00 80 1018.2
20191206095809 31 219 7.0 8.0 0.00 0.00 0.00 81 1018.3
20191206095308 31 223 5.0 7.0 0.00 0.00 0.00 82 1018.4
20191206094808 31 234 3.0 6.0 0.00 0.00 0.00 82 1018.4
20191206094308 30 212 4.0 6.0 0.00 0.00 0.00 82 1018.4
20191206093807 30 216 6.0 7.0 0.00 0.00 0.00 83 1018.4
20191206093307 30 208 5.0 7.0 0.00 0.00 0.00 84 1018.4
20191206092807 29 212 5.0 7.0 0.00 0.00 0.00 85 1018.4
20191206092307 30 208 5.0 5.0 0.00 0.00 0.00 84 1018.5
20191206091806 30 206 5.0 5.0 0.00 0.00 0.00 84 1018.7
20191206091306 30 210 3.0 5.0 0.00 0.00 0.00 84 1018.8
20191206090806 30 208 4.0 5.0 0.00 0.00 0.00 84 1018.8
20191206090305 30 212 3.0 5.0 0.00 0.00 0.00 85 1018.8
20191206085805 29 217 3.0 5.0 0.00 0.00 0.00 85 1019.0
20191206085305 29 220 2.0 4.0 0.00 0.00 0.00 85 1019.0
20191206084804 29 217 3.0 4.0 0.00 0.00 0.00 85 1019.1
20191206084304 29 216 3.0 4.0 0.00 0.00 0.00 85 1019.1
20191206083804 29 213 3.0 5.0 0.00 0.00 0.00 85 1019.3
20191206083304 29 227 3.0 4.0 0.00 0.00 0.00 85 1019.4
20191206082804 29 223 2.0 4.0 0.00 0.00 0.00 85 1019.3
20191206082305 29 216 3.0 4.0 0.00 0.00 0.00 85 1019.3
20191206081803 29 219 3.0 5.0 0.00 0.00 0.00 85 1019.4
20191206081303 29 213 5.0 5.0 0.00 0.00 0.00 85 1019.5
20191206080802 29 209 4.0 5.0 0.00 0.00 0.00 86 1019.5
20191206080302 29 222 3.0 5.0 0.00 0.00 0.00 86 1019.6
20191206075802 29 226 3.0 4.0 0.00 0.00 0.00 86 1019.5
20191206075301 29 222 4.0 4.0 0.00 0.00 0.00 86 1019.5
20191206074801 29 216 3.0 4.0 0.00 0.00 0.00 85 1019.6
20191206074301 29 182 2.0 4.0 0.00 0.00 0.00 85 1019.7
20191206073801 29 220 3.0 4.0 0.00 0.00 0.00 85 1019.7
20191206073300 29 215 4.0 5.0 0.00 0.00 0.00 86 1019.7
20191206072800 29 215 4.0 6.0 0.00 0.00 0.00 86 1019.7
20191206072300 29 223 4.0 5.0 0.00 0.00 0.00 86 1019.7
20191206071759 29 203 3.0 4.0 0.00 0.00 0.00 86 1019.8
20191206071259 29 217 0.0 3.0 0.00 0.00 0.00 86 1019.9
20191206070759 29 205 3.0 4.0 0.00 0.00 0.00 86 1020.0
20191206070258 29 226 2.0 3.0 0.00 0.00 0.00 86 1020.0
20191206065758 29 219 3.0 5.0 0.00 0.00 0.00 86 1020.0
20191206065258 29 174 0.0 0.0 0.00 0.00 0.00 86 1019.9